Sigfox identifier Datetime Temperature Humidity SNR
003C4AD4 2019-02-20 14:00:26 20.9 25 23.5
003C4AD4 2019-02-20 13:29:52 20.9 25 23.5
003C4AD4 2019-02-20 12:59:19 20.8 26 22.6
003C4AD4 2019-02-20 12:28:46 20.9 26 21.6
003C4AD4 2019-02-20 11:58:13 20.8 26 21.6
003C4AD4 2019-02-20 11:27:39 20.8 26 20.2
003C4AD4 2019-02-20 10:57:05 20.8 26 18.3
003C4AD4 2019-02-20 10:26:37 20.8 26 18.3
003C4AD4 2019-02-20 09:56:00 20.8 26 18.5
003C4AD4 2019-02-20 09:25:30 20.8 26 18.5
003C4AD4 2019-02-20 08:54:57 20.8 26 15.4
003C4AD4 2019-02-20 08:24:26 20.8 26 15.3
003C4AD4 2019-02-20 07:53:54 20.8 27 15.2
003C4AD4 2019-02-20 07:23:23 20.8 27 15.2
003C4AD4 2019-02-20 06:52:56 20.8 27 15.3
003C4AD4 2019-02-20 06:22:21 20.8 27 15.4
003C4AD4 2019-02-20 05:51:49 20.9 27 15.6
003C4AD4 2019-02-20 05:21:18 20.8 26 15.3
003C4AD4 2019-02-20 04:50:47 20.9 27 15.1
003C4AD4 2019-02-20 04:20:15 20.9 26 14.8
003C4AD4 2019-02-20 03:49:46 20.9 26 14.7
003C4AD4 2019-02-20 03:19:15 20.9 26 14.4
003C4AD4 2019-02-20 02:48:42 20.9 26 14.3
003C4AD4 2019-02-20 02:18:12 20.9 26 14.3
003C4AD4 2019-02-20 01:47:43 21 26 14.2
003C4AD4 2019-02-20 01:17:12 21 26 14.2
003C4AD4 2019-02-20 00:46:40 21 26 14.4
003C4AD4 2019-02-20 00:16:09 21.2 26 14.4
003C4AD4 2019-02-20 00:15:00 21 26 18.3
003C4AD4 2019-02-19 23:44:28 21 26 18.3
003C4AD4 2019-02-19 23:13:58 21 26 18.4
003C4AD4 2019-02-19 22:43:27 21 26 18.2
003C4AD4 2019-02-19 22:12:58 21 26 18.1
003C4AD4 2019-02-19 21:42:29 21 26 18
003C4AD4 2019-02-19 21:11:58 21 26 18.1
003C4AD4 2019-02-19 20:41:29 21 26 17.9
003C4AD4 2019-02-19 20:10:57 21.1 26 17.8
003C4AD4 2019-02-19 19:40:26 21.1 26 18
003C4AD4 2019-02-19 19:09:57 21.1 26 18.2
003C4AD4 2019-02-19 18:39:23 21.1 26 18.4
003C4AD4 2019-02-19 18:08:55 21.1 26 18.6
003C4AD4 2019-02-19 17:38:23 21.1 26 18.5
003C4AD4 2019-02-19 17:07:51 21.1 26 18.5
003C4AD4 2019-02-19 16:37:20 21.1 26 18.5
003C4AD4 2019-02-19 16:06:48 21.1 26 18.5
003C4AD4 2019-02-19 15:36:16 21.1 26 18.6
003C4AD4 2019-02-19 15:05:45 21.1 26 18.7
003C4AD4 2019-02-19 14:35:14 21 26 19
003C4AD4 2019-02-19 14:04:43 21.1 26 19.2
003C4AD4 2019-02-19 13:34:15 21 26 19.4
003C4AD4 2019-02-19 12:02:42 21 25 19.5
003C4AD4 2019-02-19 11:01:36 20.9 25 19.5
003C4AD4 2019-02-19 10:31:07 20.9 25 19.5
003C4AD4 2019-02-19 09:29:58 20.9 24 17
003C4AD4 2019-02-19 08:59:23 20.9 24 17
003C4AD4 2019-02-19 08:28:52 20.8 24 17
003C4AD4 2019-02-19 07:58:18 20.9 24 17
003C4AD4 2019-02-19 07:27:47 20.9 24 17.1
003C4AD4 2019-02-19 06:57:11 20.9 24 17.1
003C4AD4 2019-02-19 06:26:38 20.9 24 17
003C4AD4 2019-02-19 05:56:06 20.9 24 17.1
003C4AD4 2019-02-19 05:25:32 20.9 23 17.1
003C4AD4 2019-02-19 04:55:01 20.9 23 17
003C4AD4 2019-02-19 04:24:28 20.9 23 17
003C4AD4 2019-02-19 03:53:57 20.9 23 16.7
003C4AD4 2019-02-19 03:23:25 20.9 23 19.2
003C4AD4 2019-02-19 02:52:54 20.9 23 19.2
003C4AD4 2019-02-19 02:22:23 20.9 23 19.2
003C4AD4 2019-02-19 01:51:53 20.9 23 19.2
003C4AD4 2019-02-19 01:21:22 20.9 23 19.3
003C4AD4 2019-02-19 00:50:51 20.9 23 19.3
003C4AD4 2019-02-19 00:20:20 20.9 23 19.4
003C4AD4 2019-02-18 23:49:49 20.9 22 19.2
003C4AD4 2019-02-18 23:19:19 21.2 22 19.2
003C4AD4 2019-02-18 23:18:08 20.9 22 19.2
003C4AD4 2019-02-18 22:47:38 20.9 22 19.2
003C4AD4 2019-02-18 22:17:08 20.9 22 19.3
003C4AD4 2019-02-18 21:46:37 21 22 19.5
003C4AD4 2019-02-18 21:16:07 20.9 22 19.6
003C4AD4 2019-02-18 20:45:36 20.9 22 19.6
003C4AD4 2019-02-18 20:15:04 20.9 22 19.6
003C4AD4 2019-02-18 19:44:34 20.9 22 19.6
003C4AD4 2019-02-18 19:14:02 20.9 22 19.6
003C4AD4 2019-02-18 18:43:30 21 22 19.7
003C4AD4 2019-02-18 18:12:59 21 21 19.7
003C4AD4 2019-02-18 17:42:27 21 21 19.8
003C4AD4 2019-02-18 17:11:57 21 21 19.8
003C4AD4 2019-02-18 16:41:26 21 21 19.9
003C4AD4 2019-02-18 16:10:56 21.1 21 19.7
003C4AD4 2019-02-18 15:40:23 21.1 21 19.7
003C4AD4 2019-02-18 15:09:52 21.1 21 17.5
003C4AD4 2019-02-18 14:39:21 21.1 21 17.5
003C4AD4 2019-02-18 14:08:46 21.1 20 17.5
003C4AD4 2019-02-18 13:38:14 21.1 20 17.8
003C4AD4 2019-02-18 13:07:42 21.2 20 17.5
003C4AD4 2019-02-18 12:37:09 21.2 20 17.6
003C4AD4 2019-02-18 12:06:38 21.2 20 17.4
003C4AD4 2019-02-18 11:36:06 21.1 20 17.2
003C4AD4 2019-02-18 11:05:34 21.1 20 17
003C4AD4 2019-02-18 10:35:02 21.1 20 16.8
003C4AD4 2019-02-18 10:04:31 21.1 20 16.6
003C4AD4 2019-02-18 09:33:59 21 20 16.5
003C4AD4 2019-02-18 09:03:27 21 20 16.1
003C4AD4 2019-02-18 08:32:55 21 20 16
003C4AD4 2019-02-18 08:02:23 20.9 20 15.9
003C4AD4 2019-02-18 07:31:51 20.9 20 15.7
003C4AD4 2019-02-18 07:01:21 20.9 20 15.7
003C4AD4 2019-02-18 06:30:47 20.9 20 16
003C4AD4 2019-02-18 06:00:14 20.9 20 16.2
003C4AD4 2019-02-18 05:29:43 20.9 20 16.3
003C4AD4 2019-02-18 04:59:08 20.9 20 16.4
003C4AD4 2019-02-18 04:28:37 21 20 16.4
003C4AD4 2019-02-18 03:58:05 21 20 16.3
003C4AD4 2019-02-18 03:27:34 21 20 16.4
003C4AD4 2019-02-18 02:57:02 21 20 16.4
003C4AD4 2019-02-18 02:26:31 21 20 16.6
003C4AD4 2019-02-18 01:55:58 21 20 16.6
003C4AD4 2019-02-18 01:25:29 21 20 16.7
003C4AD4 2019-02-18 00:54:53 21 20 16.4
003C4AD4 2019-02-18 00:24:20 21 21 16.5
003C4AD4 2019-02-17 23:53:46 21 21 16.5
003C4AD4 2019-02-17 23:23:13 21 21 16.5
003C4AD4 2019-02-17 22:52:40 21 21 16.5
003C4AD4 2019-02-17 22:22:07 21.2 21 16.5
003C4AD4 2019-02-17 22:20:56 21 21 16.6
003C4AD4 2019-02-17 21:50:26 21 21 16.6
003C4AD4 2019-02-17 21:19:51 21 21 16.7
003C4AD4 2019-02-17 20:49:19 21.1 21 16.9
003C4AD4 2019-02-17 20:18:45 21.1 21 16.9
003C4AD4 2019-02-17 19:48:12 21.1 21 17.1
003C4AD4 2019-02-17 19:17:39 21.1 21 17
003C4AD4 2019-02-17 18:47:06 21.1 21 17.1
003C4AD4 2019-02-17 18:16:34 21.1 21 17
003C4AD4 2019-02-17 17:46:03 21.1 21 16.8
003C4AD4 2019-02-17 17:15:31 21.1 21 16.6
003C4AD4 2019-02-17 16:44:59 21.1 22 16.8
003C4AD4 2019-02-17 16:14:26 21.1 22 16.8
003C4AD4 2019-02-17 15:43:52 21.1 22 16.9
003C4AD4 2019-02-17 15:13:22 21.1 22 16.9
003C4AD4 2019-02-17 14:42:49 21.1 22 16.9
003C4AD4 2019-02-17 14:12:18 21.1 22 16.8
003C4AD4 2019-02-17 13:41:49 21.1 22 16.7
003C4AD4 2019-02-17 13:11:15 21.1 22 16.7
003C4AD4 2019-02-17 12:40:43 21.1 22 16.8
003C4AD4 2019-02-17 12:10:11 21.1 22 16.8
003C4AD4 2019-02-17 11:39:39 21.1 22 16.7
003C4AD4 2019-02-17 11:09:08 21.1 23 16.7
003C4AD4 2019-02-17 10:38:35 21.1 23 17
003C4AD4 2019-02-17 10:08:04 21.1 23 17
003C4AD4 2019-02-17 09:37:33 21.1 23 17.1
003C4AD4 2019-02-17 09:07:01 21.1 23 17.2
003C4AD4 2019-02-17 08:36:32 21.1 23 17.6
003C4AD4 2019-02-17 08:06:01 21.1 23 17.5
003C4AD4 2019-02-17 07:35:29 21.1 23 17.7
003C4AD4 2019-02-17 07:04:56 21.1 23 17.8
003C4AD4 2019-02-17 06:34:23 21.1 24 18.2
003C4AD4 2019-02-17 06:03:52 21.1 24 18.2
003C4AD4 2019-02-17 05:33:20 21.1 24 18.2
003C4AD4 2019-02-17 05:02:48 21.1 24 18.5
003C4AD4 2019-02-17 04:32:15 21.1 24 18.5
003C4AD4 2019-02-17 04:01:40 21.1 24 18.5
003C4AD4 2019-02-17 03:31:07 21.1 24 18.7
003C4AD4 2019-02-17 03:00:35 21.1 24 18.8
003C4AD4 2019-02-17 02:30:02 21.1 25 18.8
003C4AD4 2019-02-17 01:59:29 21.2 25 18.8
003C4AD4 2019-02-17 01:28:56 21.2 25 18.8
003C4AD4 2019-02-17 00:58:27 21.2 25 19
003C4AD4 2019-02-17 00:27:55 21.2 25 19.1
003C4AD4 2019-02-16 23:57:21 21.2 25 19.2
003C4AD4 2019-02-16 23:26:49 21.2 25 19.4
003C4AD4 2019-02-16 22:56:15 21.2 25 19.7
003C4AD4 2019-02-16 22:25:43 21.2 25 19.7
003C4AD4 2019-02-16 21:55:11 21.2 25 19.6
003C4AD4 2019-02-16 21:24:37 21.5 25 19.7
003C4AD4 2019-02-16 21:23:26 21.2 25 19.7
003C4AD4 2019-02-16 20:52:53 21.2 25 19.7
003C4AD4 2019-02-16 20:22:22 21.2 25 19.5
003C4AD4 2019-02-16 19:51:49 21.2 25 19.6
003C4AD4 2019-02-16 19:21:17 21.2 25 19.5
003C4AD4 2019-02-16 18:50:44 21.2 25 19.4
003C4AD4 2019-02-16 18:20:11 21.3 25 19.2
003C4AD4 2019-02-16 17:49:37 21.3 25 19.2
003C4AD4 2019-02-16 17:19:05 21.3 25 19.1
003C4AD4 2019-02-16 16:48:32 21.3 25 19
003C4AD4 2019-02-16 16:18:00 21.3 25 19
003C4AD4 2019-02-16 15:47:28 21.3 25 18.9
003C4AD4 2019-02-16 15:16:56 21.2 25 18.8
003C4AD4 2019-02-16 14:46:25 21.3 25 18.8
003C4AD4 2019-02-16 14:15:56 21.3 25 18.8
003C4AD4 2019-02-16 13:45:24 21.2 25 19
003C4AD4 2019-02-16 13:14:54 21.2 25 19
003C4AD4 2019-02-16 12:44:23 21.2 25 19
003C4AD4 2019-02-16 12:13:51 21.2 25 18.9
003C4AD4 2019-02-16 11:43:20 21.2 25 20.6
003C4AD4 2019-02-16 11:12:50 21.2 25 20.5
003C4AD4 2019-02-16 10:42:20 21.2 25 20.4
003C4AD4 2019-02-16 10:11:49 21.2 25 20.3
003C4AD4 2019-02-16 09:41:18 21.2 25 20.4
003C4AD4 2019-02-16 09:10:47 21.2 25 20.4
003C4AD4 2019-02-16 08:40:15 21.2 25 20.3
003C4AD4 2019-02-16 08:09:43 21.2 25 20.3
003C4AD4 2019-02-16 07:39:11 21.2 25 20.4
003C4AD4 2019-02-16 07:08:39 21.2 25 20.3
003C4AD4 2019-02-16 06:38:07 21.2 25 20.4
003C4AD4 2019-02-16 06:07:35 21.2 25 20.4
003C4AD4 2019-02-16 05:37:02 21.2 25 20.4
003C4AD4 2019-02-16 05:06:30 21.2 25 20.4
003C4AD4 2019-02-16 04:35:58 21.3 25 20.5
003C4AD4 2019-02-16 04:05:26 21.2 25 20.5
003C4AD4 2019-02-16 03:34:55 21.3 25 20.5
003C4AD4 2019-02-16 03:04:22 21.3 25 20.5
003C4AD4 2019-02-16 02:33:50 21.3 25 20.5
003C4AD4 2019-02-16 02:03:18 21.3 25 20.5
003C4AD4 2019-02-16 01:32:46 21.3 25 20.4
003C4AD4 2019-02-16 01:02:14 21.4 25 20.4
003C4AD4 2019-02-16 00:31:42 21.4 25 20.3
003C4AD4 2019-02-16 00:01:12 21.4 25 20.2
003C4AD4 2019-02-15 23:30:39 21.4 25 20.3
003C4AD4 2019-02-15 23:00:07 21.5 25 18.5
003C4AD4 2019-02-15 22:29:33 21.5 25 18.6
003C4AD4 2019-02-15 21:59:00 21.5 25 18.6
003C4AD4 2019-02-15 21:28:27 21.6 25 18.9
003C4AD4 2019-02-15 20:57:56 21.6 25 19
003C4AD4 2019-02-15 20:27:24 21.9 25 19
003C4AD4 2019-02-15 20:26:13 21.6 25 19
003C4AD4 2019-02-15 19:55:43 21.7 25 19.2
003C4AD4 2019-02-15 19:25:11 21.6 25 19.3
003C4AD4 2019-02-15 18:54:39 21.7 25 19.5
003C4AD4 2019-02-15 18:24:08 21.7 25 19.6
003C4AD4 2019-02-15 17:53:36 21.6 25 19.7
003C4AD4 2019-02-15 17:23:06 21.6 25 19.9
003C4AD4 2019-02-15 16:52:35 21.6 25 20
003C4AD4 2019-02-15 16:22:03 21.6 25 19.9
003C4AD4 2019-02-15 15:51:31 21.6 25 20
003C4AD4 2019-02-15 15:21:00 21.6 25 20.2
003C4AD4 2019-02-15 14:50:27 21.6 25 20.4
003C4AD4 2019-02-15 14:19:54 21.6 25 20.3
003C4AD4 2019-02-15 13:49:22 21.5 25 20.4
003C4AD4 2019-02-15 13:18:51 21.5 25 20.5
003C4AD4 2019-02-15 12:48:20 21.5 25 20.5
003C4AD4 2019-02-15 12:17:49 21.5 25 20.5
003C4AD4 2019-02-15 11:47:19 21.4 25 20.5
003C4AD4 2019-02-15 11:16:49 21.4 25 20.7
003C4AD4 2019-02-15 10:46:19 21.4 25 20.8
003C4AD4 2019-02-15 10:15:48 21.4 25 20.8
003C4AD4 2019-02-15 09:45:17 21.4 25 20.8
003C4AD4 2019-02-15 09:14:47 21.4 25 20.7
003C4AD4 2019-02-15 08:44:16 21.4 25 20.6
003C4AD4 2019-02-15 08:13:47 21.3 25 20.9
003C4AD4 2019-02-15 07:43:15 21.3 25 21
003C4AD4 2019-02-15 07:12:44 21.3 25 21
003C4AD4 2019-02-15 06:42:13 21.3 25 21
003C4AD4 2019-02-15 06:11:43 21.3 25 21
003C4AD4 2019-02-15 05:41:11 21.3 25 20.9
003C4AD4 2019-02-15 05:10:39 21.4 25 21
003C4AD4 2019-02-15 04:40:07 21.4 25 20.8
003C4AD4 2019-02-15 04:09:36 21.4 25 20.7
003C4AD4 2019-02-15 03:39:05 21.4 25 20.8
003C4AD4 2019-02-15 03:08:34 21.4 25 20.8
003C4AD4 2019-02-15 02:38:01 21.4 25 20.9
003C4AD4 2019-02-15 02:07:30 21.4 25 20.8
003C4AD4 2019-02-15 01:36:58 21.4 25 20.8
003C4AD4 2019-02-15 01:06:23 21.5 25 20.8
003C4AD4 2019-02-15 00:35:51 21.5 25 20.8
003C4AD4 2019-02-15 00:05:17 21.5 25 20.8
003C4AD4 2019-02-14 23:34:44 21.5 25 20.9
003C4AD4 2019-02-14 23:04:13 21.5 25 20.9
003C4AD4 2019-02-14 22:33:41 21.6 25 20.7
003C4AD4 2019-02-14 22:03:10 21.6 25 20.4
003C4AD4 2019-02-14 21:32:39 21.6 25 20.5
003C4AD4 2019-02-14 21:02:08 21.7 24 20.4
003C4AD4 2019-02-14 20:31:36 21.7 24 20.3
003C4AD4 2019-02-14 20:01:05 21.8 24 20.3
003C4AD4 2019-02-14 19:30:33 22 24 20
003C4AD4 2019-02-14 19:29:22 21.8 24 20.1
003C4AD4 2019-02-14 18:58:52 21.8 24 20.3
003C4AD4 2019-02-14 18:28:19 21.8 24 20.4
003C4AD4 2019-02-14 17:57:47 21.8 24 20.4
003C4AD4 2019-02-14 17:27:16 21.8 24 20.5
003C4AD4 2019-02-14 16:56:44 21.8 25 20.5
003C4AD4 2019-02-14 16:26:13 21.8 25 20.6
003C4AD4 2019-02-14 15:55:42 21.7 24 20.8
003C4AD4 2019-02-14 15:25:12 21.7 24 20.9
003C4AD4 2019-02-14 14:54:41 21.7 24 20.8
003C4AD4 2019-02-14 14:24:10 21.6 24 20.8
003C4AD4 2019-02-14 13:53:38 21.6 23 20.9
003C4AD4 2019-02-14 13:23:07 21.5 23 21
003C4AD4 2019-02-14 12:52:35 21.4 23 20.9
003C4AD4 2019-02-14 12:22:03 21.4 23 21
003C4AD4 2019-02-14 11:51:32 21.3 23 21.1
003C4AD4 2019-02-14 11:21:02 21.2 23 21.1
003C4AD4 2019-02-14 10:50:32 21.1 24 21.3
003C4AD4 2019-02-14 10:20:00 21 24 21.5
003C4AD4 2019-02-14 09:49:29 21 23 21.6
003C4AD4 2019-02-14 09:18:57 21 24 21.6
003C4AD4 2019-02-14 08:48:28 20.9 24 21.6
003C4AD4 2019-02-14 08:17:56 20.9 24 21.7
003C4AD4 2019-02-14 07:47:25 20.9 25 22
003C4AD4 2019-02-14 07:16:53 20.9 26 22.1
003C4AD4 2019-02-14 06:46:20 21 26 22.1
003C4AD4 2019-02-14 06:15:48 21 26 22.1
003C4AD4 2019-02-14 05:45:15 21 26 22
003C4AD4 2019-02-14 05:14:45 20.9 26 21.8
003C4AD4 2019-02-14 04:44:10 21 26 21.8
003C4AD4 2019-02-14 04:13:38 21 26 21.6
003C4AD4 2019-02-14 03:43:06 21 25 21.5
003C4AD4 2019-02-14 03:12:34 21 25 21.3
003C4AD4 2019-02-14 02:42:03 21 25 21.2
003C4AD4 2019-02-14 02:11:31 21 25 21.1
003C4AD4 2019-02-14 01:41:00 21 25 20.8
003C4AD4 2019-02-14 01:10:28 21 25 20.8
003C4AD4 2019-02-14 00:39:56 21 25 20.6
003C4AD4 2019-02-14 00:09:27 21.1 25 20.6
003C4AD4 2019-02-13 23:38:53 21.1 25 20.4
003C4AD4 2019-02-13 23:08:21 21.1 25 20.4
003C4AD4 2019-02-13 22:37:49 21.2 25 20.2
003C4AD4 2019-02-13 22:07:16 21.2 25 20.1
003C4AD4 2019-02-13 21:36:45 21.3 25 19.8
003C4AD4 2019-02-13 21:06:13 21.3 25 19.7
003C4AD4 2019-02-13 20:35:41 21.4 25 19.5
003C4AD4 2019-02-13 20:05:09 21.4 25 19.5
003C4AD4 2019-02-13 19:34:34 21.5 25 19.3
003C4AD4 2019-02-13 19:04:03 21.6 25 18.7
003C4AD4 2019-02-13 18:33:31 21.8 25 18.5
003C4AD4 2019-02-13 18:32:19 21.6 25 18.1
003C4AD4 2019-02-13 18:01:46 21.6 27 17.6
003C4AD4 2019-02-13 17:31:15 21.5 26 17.4
003C4AD4 2019-02-13 17:00:44 21.5 27 17.7
003C4AD4 2019-02-13 16:30:13 21.4 26 17.2
003C4AD4 2019-02-13 15:59:42 21.3 26 19.6
003C4AD4 2019-02-13 15:29:10 21.2 26 19.7
003C4AD4 2019-02-13 14:58:39 21.2 26 19.6
003C4AD4 2019-02-13 14:28:10 21.1 25 19.6
003C4AD4 2019-02-13 13:57:40 21.1 25 19.7
003C4AD4 2019-02-13 13:27:10 21.2 25 19.6
003C4AD4 2019-02-13 12:56:40 21.3 25 19.5
003C4AD4 2019-02-13 12:26:09 21.2 25 19.6
003C4AD4 2019-02-13 11:55:38 21.2 25 19.5
003C4AD4 2019-02-13 11:25:07 21.1 25 19.5
003C4AD4 2019-02-13 10:54:35 21 25 19.3
003C4AD4 2019-02-13 10:24:08 20.9 24 19.3
003C4AD4 2019-02-13 09:53:33 20.9 24 19.1
003C4AD4 2019-02-13 09:23:01 20.9 23 19.2
003C4AD4 2019-02-13 08:52:30 20.9 22 19.1
003C4AD4 2019-02-13 08:22:00 20.9 21 19
003C4AD4 2019-02-13 07:51:29 20.9 21 19.1
003C4AD4 2019-02-13 07:20:58 20.9 19 19.2
003C4AD4 2019-02-13 06:50:26 20.9 19 19.2
003C4AD4 2019-02-13 06:19:54 20.9 19 19.1
003C4AD4 2019-02-13 05:49:24 20.9 19 19.1
003C4AD4 2019-02-13 05:18:52 20.9 19 19.1
003C4AD4 2019-02-13 04:48:21 21 19 19.1
003C4AD4 2019-02-13 04:17:50 21 19 18.9
003C4AD4 2019-02-13 03:47:19 21 19 18.8
003C4AD4 2019-02-13 03:16:47 21 19 15.7
003C4AD4 2019-02-13 02:46:17 21 19 15.7
003C4AD4 2019-02-13 02:15:45 21 18 18.8
003C4AD4 2019-02-13 01:45:14 21 18 19
003C4AD4 2019-02-13 01:14:43 21.1 18 19
003C4AD4 2019-02-13 00:44:11 21.1 18 19
003C4AD4 2019-02-13 00:13:40 21.1 19 19.2
003C4AD4 2019-02-12 23:43:09 21.1 19 19.5
003C4AD4 2019-02-12 23:12:36 21.1 19 19.6
003C4AD4 2019-02-12 22:42:03 21.1 18 19.9
003C4AD4 2019-02-12 22:11:31 21.2 19 20.1
003C4AD4 2019-02-12 21:40:57 21.3 19 20.2
003C4AD4 2019-02-12 21:10:24 21.3 21 20.2
003C4AD4 2019-02-12 20:39:53 21.3 21 20.2
003C4AD4 2019-02-12 20:09:19 21.3 21 20.3
003C4AD4 2019-02-12 19:38:46 21.3 21 20.3
003C4AD4 2019-02-12 19:08:13 21.3 20 20.3
003C4AD4 2019-02-12 18:37:40 21.2 20 20.2
003C4AD4 2019-02-12 18:07:07 21.3 18 20.2
003C4AD4 2019-02-12 17:36:32 21.6 18 20.2
003C4AD4 2019-02-12 17:35:21 21.3 18 20.2
003C4AD4 2019-02-12 17:04:46 21.4 18 20.3
003C4AD4 2019-02-12 16:34:12 21.5 18 20.3
003C4AD4 2019-02-12 16:03:37 21.5 18 20.3
003C4AD4 2019-02-12 15:33:04 21.5 18 20.4
003C4AD4 2019-02-12 15:02:31 21.5 19 20.6
003C4AD4 2019-02-12 14:31:59 21.4 19 20.6
003C4AD4 2019-02-12 14:01:26 21.3 19 18.8
003C4AD4 2019-02-12 13:30:51 21.3 18 18.8
003C4AD4 2019-02-12 13:00:18 21.4 18 18.8
003C4AD4 2019-02-12 12:29:46 21.4 18 18.8
003C4AD4 2019-02-12 11:59:14 21.3 19 18.5
003C4AD4 2019-02-12 11:28:40 21.3 20 18
003C4AD4 2019-02-12 10:58:08 21.2 20 17.8
003C4AD4 2019-02-12 10:27:35 21.2 21 17.4
003C4AD4 2019-02-12 09:57:02 21.1 21 17.1
003C4AD4 2019-02-12 09:26:29 21 23 16.9
003C4AD4 2019-02-12 08:55:57 21 23 16.9
003C4AD4 2019-02-12 08:25:25 20.9 23 16.8
003C4AD4 2019-02-12 07:54:52 20.9 24 16.7
003C4AD4 2019-02-12 07:24:19 20.9 25 16.6
003C4AD4 2019-02-12 06:53:47 21 26 16.5
003C4AD4 2019-02-12 06:23:14 21 26 16.4
003C4AD4 2019-02-12 05:52:43 21 26 16.7
003C4AD4 2019-02-12 05:22:12 21 26 16.6
003C4AD4 2019-02-12 04:51:39 21 27 16.6
003C4AD4 2019-02-12 04:21:08 21 27 16.7
003C4AD4 2019-02-12 03:50:36 21 27 16.7
003C4AD4 2019-02-12 03:20:04 21 27 16.7
003C4AD4 2019-02-12 02:49:33 21 27 16.6
003C4AD4 2019-02-12 02:19:01 21 27 16.3
003C4AD4 2019-02-12 01:48:27 21 27 16.2
003C4AD4 2019-02-12 01:17:53 21.1 27 16.2
003C4AD4 2019-02-12 00:47:20 21.1 27 15.7
003C4AD4 2019-02-12 00:16:47 21.1 27 15.6
003C4AD4 2019-02-11 23:46:13 21.2 27 15.7
003C4AD4 2019-02-11 23:15:40 21.2 27 15.9
003C4AD4 2019-02-11 22:45:06 21.3 27 16
003C4AD4 2019-02-11 22:14:31 21.3 27 15.8
003C4AD4 2019-02-11 21:43:57 21.4 27 15.9
003C4AD4 2019-02-11 21:13:22 21.5 27 16
003C4AD4 2019-02-11 20:42:48 21.6 27 16.1
003C4AD4 2019-02-11 20:12:14 21.7 27 16.2
003C4AD4 2019-02-11 19:41:40 21.8 27 16.6
003C4AD4 2019-02-11 19:11:04 21.9 27 16.7
003C4AD4 2019-02-11 18:40:30 22.1 27 17.1
003C4AD4 2019-02-11 18:09:56 22.2 27 18
003C4AD4 2019-02-11 17:39:24 22.3 27 18.5
003C4AD4 2019-02-11 17:08:51 22.4 27 15.5
003C4AD4 2019-02-11 16:38:18 22.6 32 0